TimeEDT,TemperatureF,Dew PointF,Humidity,Sea Level PressureIn,VisibilityMPH,Wind Direction,Wind SpeedMPH,Gust SpeedMPH,PrecipitationIn,Events,Conditions,WindDirDegrees,DateUTC
12:53 AM,73.9,64.0,71,29.97,10.0,Calm,Calm,-,N/A,,Overcast,0,2013-08-06 04:53:00
1:53 AM,72.0,66.0,81,29.96,10.0,South,4.6,-,0.00,,Overcast,180,2013-08-06 05:53:00
2:53 AM,71.1,66.0,84,29.94,10.0,Calm,Calm,-,N/A,,Overcast,0,2013-08-06 06:53:00
3:53 AM,72.0,64.0,76,29.93,10.0,SSW,4.6,-,N/A,,Overcast,210,2013-08-06 07:53:00
4:30 AM,73.4,64.4,73,29.99,2.5,WNW,3.5,-,0.00,Rain,Rain,290,2013-08-06 08:30:00
4:34 AM,71.6,64.4,78,29.99,4.0,Calm,Calm,-,0.00,Rain,Light Rain,0,2013-08-06 08:34:00
4:53 AM,72.0,64.9,78,29.94,7.0,Calm,Calm,-,0.01,Rain,Light Rain,0,2013-08-06 08:53:00
5:53 AM,71.1,66.0,84,29.94,10.0,Calm,Calm,-,0.00,Rain,Light Rain,0,2013-08-06 09:53:00
6:53 AM,69.1,66.0,90,29.96,10.0,East,3.5,-,0.00,,Overcast,100,2013-08-06 10:53:00
7:53 AM,71.1,66.0,84,29.97,10.0,Calm,Calm,-,N/A,,Overcast,0,2013-08-06 11:53:00
8:53 AM,72.0,66.9,84,29.99,10.0,East,3.5,-,N/A,,Mostly Cloudy,90,2013-08-06 12:53:00
9:53 AM,77.0,69.8,78,30.03,10.0,Calm,Calm,-,N/A,,Mostly Cloudy,0,2013-08-06 13:53:00
10:53 AM,79.0,66.0,64,29.99,10.0,SE,3.5,-,N/A,,Mostly Cloudy,130,2013-08-06 14:53:00
11:53 AM,81.0,64.9,58,29.99,10.0,WSW,6.9,-,N/A,,Mostly Cloudy,240,2013-08-06 15:53:00
12:53 PM,82.0,64.0,54,30.00,10.0,SW,6.9,-,N/A,,Overcast,230,2013-08-06 16:53:00
1:53 PM,82.9,64.9,54,29.98,10.0,WSW,6.9,-,N/A,,Overcast,250,2013-08-06 17:53:00
2:53 PM,82.9,66.0,56,29.97,10.0,SW,5.8,-,N/A,,Mostly Cloudy,220,2013-08-06 18:53:00
3:53 PM,84.9,69.1,59,29.94,10.0,SW,6.9,-,N/A,,Mostly Cloudy,220,2013-08-06 19:53:00
4:53 PM,84.0,70.0,63,29.95,10.0,WSW,9.2,-,N/A,,Mostly Cloudy,240,2013-08-06 20:53:00
5:53 PM,82.9,69.1,63,29.95,10.0,SW,9.2,-,N/A,,Mostly Cloudy,230,2013-08-06 21:53:00
6:53 PM,82.0,70.0,67,29.94,10.0,SW,8.1,-,N/A,,Mostly Cloudy,220,2013-08-06 22:53:00
7:53 PM,80.1,70.0,71,29.95,10.0,West,6.9,-,N/A,,Mostly Cloudy,260,2013-08-06 23:53:00
8:53 PM,78.1,70.0,76,29.94,10.0,SW,5.8,-,N/A,,Mostly Cloudy,220,2013-08-07 00:53:00
9:53 PM,78.1,70.0,76,29.97,10.0,West,4.6,-,N/A,,Mostly Cloudy,270,2013-08-07 01:53:00
10:53 PM,77.0,70.0,79,29.96,10.0,SW,4.6,-,N/A,,Mostly Cloudy,220,2013-08-07 02:53:00
11:53 PM,77.0,70.0,79,29.97,10.0,WSW,3.5,-,N/A,,Mostly Cloudy,250,2013-08-07 03:53:00